[[{"header":{"parameterUnit":"m.s-1","parameterCategory":2,"la1":30.2991,"la2":30.254,"lo1":-89.0895,"lo2":-89.0444,"dy":0.0017,"dx":0.0017,"nx":28,"ny":28,"refTime":"2024-04-04T03:00:00:Z","depth":"0","parameterNumber":2,"parameterNumberName":"U-component_of_CURRENTS"},"data":[0,0,0,0,0,0,0,0,0,0,0,0,0,0,0,0,0,0,0,0,0,0,0,0,0,0,0,0,0,0,0,0,0,0,0,0,0,0,0,0,0,0,0,0,0,0,0,0,0,0,0,0,0,0,0,0,0,0,0.2987,0.2988,0,0.3018,0.3018,0.3018,0.3083,0.3085,0.3086,0.3087,0.3103,0.3102,0.3101,0,0,0,0,0,0,0,0,0,0,0,0,0,0.3004,0.3003,0.2987,0.2988,0.2988,0.3017,0.3018,0.3018,0.3083,0.3085,0.3086,0.3088,0.3103,0.3102,0.3101,0,0,0,0,0,0,0,0,0,0,0,0,0,0.301,0.3003,0.2987,0.3025,0.3029,0.3017,0.3018,0.3018,0.3082,0.3085,0.3087,0.3089,0.3103,0.3102,0.3101,0.3049,0,0,0.3096,0.3096,0,0,0,0,0,0,0,0,0.301,0.3009,0.3019,0.3022,0.3027,0.305,0.3029,0.3028,0.3082,0.3061,0.3087,0.309,0.3083,0.3083,0.3083,0.305,0.305,0.3096,0.3095,0.3095,0.3094,0,0,0,0,0,0,0,0.3009,0.3009,0.2998,0.3019,0.3024,0.3047,0.305,0.3029,0.3058,0.3063,0.3068,0.3073,0.3085,0.3084,0.3083,0.305,0.3096,0.3095,0.3094,0.3094,0.3085,0.3086,0,0,0,0,0,0,0.3004,0.3008,0.2997,0.2999,0.3025,0.3045,0.3048,0.3039,0.3059,0.3064,0.3071,0.3075,0.3085,0.3085,0.3084,0.3125,0.3095,0.3093,0.3093,0.3085,0.3086,0.3086,0,0,0,0,0,0,0.3004,0.3002,0.2996,0.3006,0.3007,0.3042,0.3032,0.3039,0.3051,0.3065,0.3071,0.3078,0.3087,0.3086,0.309,0.3122,0.3093,0.3091,0.3084,0.3085,0.3086,0.3141,0,0,0,0,0,0,0.3004,0.3002,0.2992,0.3005,0.3007,0.3013,0.303,0.3038,0.3051,0.3058,0.3073,0.3076,0.3088,0.3092,0.3089,0.312,0.309,0.3083,0.3084,0.3086,0.3139,0.3144,0.3149,0,0,0,0,0,0.3004,0.2994,0.2991,0.299,0.2992,0.3013,0.3017,0.3048,0.3049,0.3064,0.3072,0.3076,0.3099,0.3091,0.3087,0.3118,0.3083,0.3084,0.3086,0.3137,0.3143,0.3149,0,0,0,0,0,0,0.2987,0.3,0.2997,0.2987,0.3005,0.3026,0.3038,0.3042,0.3057,0.3064,0.3069,0.3073,0.3097,0.3085,0.3077,0.3119,0.3096,0.3097,0.3136,0.3142,0.3147,0.3166,0.3089,0,0,0,0,0,0.2975,0.2979,0.299,0.2983,0.2993,0.3007,0.3016,0.3037,0.3051,0.306,0.3066,0.3075,0.3093,0.31,0.3109,0.311,0.3125,0.3131,0.3136,0.3141,0.3153,0.3202,0.3213,0.3091,0.3091,0.3091,0,0,0.2965,0.2973,0.2973,0.2982,0.2996,0.3016,0.3019,0.3043,0.3064,0.3054,0.3079,0.3087,0.3096,0.3125,0.3133,0.3122,0.3183,0.3143,0.3146,0.3157,0.3205,0.3217,0.3228,0.3092,0.3092,0.3091,0,0,0.2963,0.2955,0.2966,0.2983,0.301,0.3024,0.3029,0.305,0.3072,0.3083,0.3099,0.3124,0.3123,0.3158,0.3169,0.3195,0.3208,0.3196,0.3238,0.3285,0.3296,0.3306,0.3341,0.3354,0.3199,0.3199,0.3199,0,0.2951,0.296,0.2973,0.2993,0.3014,0.3027,0.3051,0.3068,0.3088,0.3112,0.3104,0.3148,0.3148,0.3207,0.3226,0.321,0.3233,0.3217,0.3294,0.3304,0.3313,0.3347,0.336,0.3202,0.3202,0.3202,0.3201,0,0.2963,0.2974,0.2985,0.3016,0.304,0.3064,0.3093,0.312,0.3133,0.3152,0.3206,0.3213,0.3249,0.3254,0.3246,0.3318,0.3313,0.3297,0.3284,0.3329,0.3361,0.3374,0.3206,0.3205,0.3204,0.3204,0,0,0.2922,0.2984,0.2985,0.3006,0.3057,0.3072,0.3127,0.3179,0.3219,0.3239,0.3296,0.3325,0.3336,0.3349,0.3353,0.3388,0.3465,0.3372,0.3373,0.3416,0.3572,0.3554,0.3566,0.3469,0.3471,0.3473,0.3568,0,0.2929,0.2967,0.3007,0.3045,0.3066,0.3119,0.3164,0.3215,0.3262,0.3316,0.3351,0.3395,0.3371,0.3397,0.3433,0.3461,0.3502,0.3441,0.3514,0.3516,0.3502,0.3581,0.3487,0.3564,0.3581,0.3583,0.3585,0,0.2923,0.2952,0.2994,0.3062,0.3078,0.3109,0.3201,0.3248,0.3342,0.3384,0.3453,0.3475,0.3544,0.3505,0.3595,0.3561,0.3575,0.3587,0.359,0.3566,0.3523,0.352,0.3586,0.3527,0.3604,0.3603,0.3601,0,0.2874,0.2939,0.2974,0.2994,0.3073,0.3116,0.3167,0.3265,0.3325,0.3438,0.3483,0.357,0.3614,0.3658,0.3684,0.3651,0.3776,0.373,0.3729,0.3727,0.3658,0.3646,0.3683,0.3798,0.3798,0.3798,0.3798,0,0.2857,0.2875,0.295,0.2961,0.3013,0.3083,0.3159,0.3237,0.3354,0.342,0.3506,0.3574,0.3656,0.3727,0.3735,0.3788,0.3823,0.3764,0.3765,0.3672,0.3661,0.3612,0.3571,0.3801,0.3801,0.38,0.3799,0,0.2792,0.2842,0.2878,0.296,0.299,0.3024,0.3146,0.3198,0.3318,0.3416,0.3454,0.3606,0.3709,0.3777,0.3869,0.3854,0.3812,0.3902,0.3787,0.3772,0.3692,0.3657,0.3557,0.3448,0.3921,0.3921,0.3921,0,0.2762,0.2774,0.2857,0.2875,0.2914,0.298,0.3027,0.3168,0.3237,0.342,0.3458,0.3612,0.3702,0.3852,0.3892,0.3948,0.3824,0.387,0.3784,0.3706,0.3667,0.3507,0.3409,0.3712,0.371,0.3709,0.3708,0,0.2699,0.2732,0.2761,0.2803,0.2846,0.2899,0.2983,0.3034,0.3193,0.3283,0.3421,0.3518,0.3708,0.3762,0.3863,0.3873,0.3711,0.3846,0.3799,0.3549,0.3342,0.3231,0.3625,0.3698,0.3699,0.3699,0.37,0.37,0.2643,0.2647,0.2684,0.2712,0.2755,0.2782,0.2785,0.2888,0.2976,0.3081,0.3282,0.3386,0.3597,0.3744,0.3731,0.3706,0.3643,0.3622,0.36,0.3456,0.3301,0.3674,0.3722,0.3723,0.3724,0.3725,0.3726,0,0.2546,0.2561,0.2587,0.2602,0.2586,0.2658,0.2716,0.27,0.2735,0.2932,0.3045,0.3261,0.3352,0.3487,0.3592,0.3502,0.3307,0.3412,0.3172,0.3097,0.3483,0.3426,0.337,0.337,0.337,0.337,0.337,0.337,0.2495,0.2469,0.248,0.2416,0.2424,0.2369,0.2367,0.2383,0.2496,0.2613,0.2757,0.2933,0.3279,0.3492,0.3476,0.3375,0.3108,0.2981,0.2937,0.3246,0.3263,0.3279,0.3217,0.3117,0.3117,0.243,0.2425,0.2421]},{"header":{"parameterUnit":"m.s-1","parameterCategory":2,"la1":30.2991,"la2":30.254,"lo1":-89.0895,"lo2":-89.0444,"dy":0.0017,"dx":0.0017,"nx":28,"ny":28,"refTime":"2024-04-04T03:00:00:Z","depth":"0","parameterNumber":3,"parameterNumberName":"V-component_of_CURRENTS"},"data":[0,0,0,0,0,0,0,0,0,0,0,0,0,0,0,0,0,0,0,0,0,0,0,0,0,0,0,0,0,0,0,0,0,0,0,0,0,0,0,0,0,0,0,0,0,0,0,0,0,0,0,0,0,0,0,0,0,0,-0.0107,-0.0108,0,-0.0193,-0.0194,-0.0195,-0.0269,-0.027,-0.0271,-0.0271,-0.0399,-0.0402,-0.0404,0,0,0,0,0,0,0,0,0,0,0,0,0,-0.0057,-0.0057,-0.0107,-0.0108,-0.0109,-0.0193,-0.0194,-0.0196,-0.0269,-0.027,-0.0271,-0.0272,-0.0398,-0.0401,-0.0405,0,0,0,0,0,0,0,0,0,0,0,0,0,-0.0106,-0.0058,-0.0107,-0.0155,-0.016,-0.0193,-0.0194,-0.0196,-0.0269,-0.027,-0.0271,-0.0272,-0.0397,-0.0401,-0.0405,-0.041,0,0,-0.0418,-0.0419,0,0,0,0,0,0,0,0,-0.0103,-0.0108,-0.0147,-0.0151,-0.0157,-0.022,-0.0224,-0.0269,-0.0269,-0.0229,-0.0271,-0.0273,-0.0341,-0.035,-0.0365,-0.0416,-0.0421,-0.0418,-0.0421,-0.0422,-0.0423,0,0,0,0,0,0,0,-0.0099,-0.0105,-0.0143,-0.0148,-0.0154,-0.0189,-0.0197,-0.0233,-0.028,-0.0233,-0.0238,-0.0245,-0.0345,-0.0361,-0.0369,-0.0423,-0.0418,-0.0422,-0.0424,-0.0426,-0.0496,-0.0495,0,0,0,0,0,0,-0.0082,-0.0101,-0.014,-0.0145,-0.013,-0.0189,-0.0198,-0.02,-0.0279,-0.0291,-0.0244,-0.0248,-0.0354,-0.0364,-0.0374,-0.0383,-0.0422,-0.0426,-0.0429,-0.0497,-0.0496,-0.0495,0,0,0,0,0,0,-0.008,-0.0084,-0.0136,-0.0124,-0.0133,-0.0188,-0.0191,-0.0201,-0.0217,-0.0287,-0.0301,-0.0248,-0.0355,-0.0368,-0.0401,-0.0388,-0.0428,-0.0432,-0.0497,-0.0496,-0.0496,-0.0401,0,0,0,0,0,0,-0.0078,-0.0083,-0.0079,-0.0123,-0.0133,-0.0148,-0.019,-0.0202,-0.0219,-0.0225,-0.0295,-0.0308,-0.0357,-0.0394,-0.0405,-0.0395,-0.0435,-0.0498,-0.0497,-0.0496,-0.0405,-0.0397,-0.039,0,0,0,0,0,-0.0076,-0.0063,-0.0078,-0.0083,-0.0125,-0.0147,-0.0156,-0.02,-0.0218,-0.0219,-0.0266,-0.0306,-0.0395,-0.0397,-0.041,-0.04,-0.0499,-0.0497,-0.0496,-0.0408,-0.0399,-0.0391,0,0,0,0,0,0,-0.0043,-0.007,-0.0088,-0.0085,-0.0111,-0.0159,-0.0163,-0.0189,-0.0226,-0.0231,-0.0298,-0.0314,-0.0339,-0.038,-0.038,-0.0417,-0.0453,-0.0454,-0.0382,-0.0374,-0.0367,-0.0346,-0.0438,0,0,0,0,0,-0.003,-0.0026,-0.0062,-0.0059,-0.0067,-0.0111,-0.0125,-0.0151,-0.0189,-0.0207,-0.0254,-0.0303,-0.0342,-0.0365,-0.0407,-0.0424,-0.0459,-0.0427,-0.0419,-0.0413,-0.0405,-0.0442,-0.0437,-0.0491,-0.0491,-0.0491,0,0,-0.0018,-0.0031,-0.0031,-0.0052,-0.0075,-0.0075,-0.0123,-0.0133,-0.0135,-0.0213,-0.0229,-0.0278,-0.0341,-0.0363,-0.0378,-0.0397,-0.0415,-0.0411,-0.0405,-0.04,-0.044,-0.0435,-0.043,-0.049,-0.049,-0.049,0,0,0.0016,0.0001,0.0017,0.0005,-0.0017,-0.0043,-0.0039,-0.0079,-0.0099,-0.012,-0.0174,-0.0212,-0.0273,-0.0314,-0.0343,-0.0318,-0.0373,-0.0332,-0.028,-0.0316,-0.0312,-0.0309,-0.0338,-0.0338,-0.0329,-0.0329,-0.0329,0,0.0031,0.0047,0.0017,0.0031,0.0029,-0.002,-0.0003,-0.0027,-0.0072,-0.0079,-0.0113,-0.0193,-0.0249,-0.0274,-0.0272,-0.0301,-0.0328,-0.0307,-0.0305,-0.0303,-0.0301,-0.0332,-0.0333,-0.0324,-0.0325,-0.0325,-0.0326,0,0.0077,0.0089,0.01,0.0102,0.0096,0.0104,0.0073,0.0066,0.0035,0.0005,-0.0026,-0.0103,-0.015,-0.0175,-0.0221,-0.0232,-0.0256,-0.0289,-0.0323,-0.029,-0.0325,-0.0328,-0.0317,-0.0319,-0.0321,-0.0322,0,0,0.0114,0.0129,0.0134,0.0152,0.0137,0.0141,0.0147,0.0137,0.0152,0.0091,0.0094,0.0014,-0.0028,-0.0064,-0.0124,-0.0164,-0.0181,-0.0215,-0.0219,-0.0235,-0.0252,-0.0258,-0.0263,-0.0212,-0.0212,-0.0212,-0.0278,0,0.0159,0.0209,0.0198,0.0243,0.0267,0.0235,0.0248,0.0233,0.0208,0.0199,0.0118,0.0093,0.0015,-0.0004,-0.0054,-0.0148,-0.0185,-0.0159,-0.029,-0.0293,-0.0297,-0.0266,-0.0257,-0.0314,-0.0282,-0.0282,-0.0283,0,0.0209,0.024,0.0293,0.0326,0.0333,0.0351,0.0373,0.0378,0.0352,0.0329,0.0287,0.0222,0.0157,0.0084,-0.0051,-0.0029,-0.0128,-0.0208,-0.0213,-0.0253,-0.0305,-0.0346,-0.0322,-0.052,-0.0288,-0.0288,-0.0287,0,0.0263,0.0308,0.0356,0.0367,0.0391,0.0414,0.0428,0.0423,0.0451,0.042,0.0428,0.033,0.0292,0.0157,-0.0008,-0.0029,-0.0156,-0.021,-0.0308,-0.031,-0.0345,-0.035,-0.0521,-0.0301,-0.0301,-0.0301,-0.03,0,0.032,0.0361,0.0391,0.0421,0.049,0.0483,0.0551,0.0549,0.0566,0.0611,0.0505,0.0519,0.0309,0.0208,0.004,-0.0129,-0.012,-0.0288,-0.0323,-0.0312,-0.0312,-0.0522,-0.0631,-0.0303,-0.0303,-0.0302,-0.0302,0,0.0374,0.0387,0.0451,0.0497,0.0518,0.0573,0.0646,0.0699,0.0697,0.0753,0.0749,0.0667,0.0536,0.0325,0.0109,-0.005,-0.0336,-0.029,-0.0257,-0.0287,-0.0567,-0.0669,-0.0875,-0.0959,-0.0411,-0.0411,-0.0412,0,0.0406,0.0444,0.0516,0.0565,0.0592,0.0671,0.073,0.0763,0.0831,0.0854,0.0895,0.0791,0.0747,0.0436,0.0129,-0.0155,-0.0348,-0.0337,-0.0384,-0.0571,-0.0713,-0.0794,-0.0856,-0.0398,-0.0399,-0.0399,-0.0399,0,0.0471,0.0491,0.0547,0.0651,0.0725,0.0818,0.0913,0.099,0.1032,0.1083,0.1141,0.111,0.0811,0.0545,0.0151,-0.0067,-0.0476,-0.035,-0.0561,-0.0724,-0.0808,-0.0908,-0.0367,-0.0401,-0.0401,-0.0401,-0.0401,-0.04,0.0518,0.0571,0.0644,0.0746,0.0837,0.0963,0.1059,0.1163,0.1287,0.1384,0.1342,0.1347,0.0933,0.0404,0.0084,-0.0494,-0.051,-0.0676,-0.0786,-0.0852,-0.0934,-0.0385,-0.0449,-0.0449,-0.0449,-0.0449,-0.0449,0,0.0581,0.064,0.0735,0.0858,0.0973,0.101,0.1177,0.1281,0.1439,0.154,0.1592,0.1424,0.0907,0.0369,-0.0404,-0.0839,-0.1005,-0.109,-0.1224,-0.1267,-0.0795,-0.0795,-0.0915,-0.0915,-0.0915,-0.0915,-0.0915,-0.0914,0.0613,0.0712,0.0762,0.0954,0.1045,0.1211,0.1316,0.1468,0.1592,0.1739,0.1779,0.1767,0.1365,-0.0064,-0.1059,-0.1299,-0.1588,-0.1665,-0.1813,-0.1519,-0.149,-0.1461,-0.1489,-0.1752,-0.1753,-0.2232,-0.2237,-0.2241]}],[{"header":{"parameterUnit":"m.s-1","parameterCategory":2,"la1":30.2991,"la2":30.254,"lo1":-89.0895,"lo2":-89.0444,"dy":0.0017,"dx":0.0017,"nx":28,"ny":28,"refTime":"2024-04-04T03:00:00:Z","depth":"2","parameterNumber":2,"parameterNumberName":"U-component_of_CURRENTS"},"data":[0,0,0,0,0,0,0,0,0,0,0,0,0,0,0,0,0,0,0,0,0,0,0,0,0,0,0,0,0,0,0,0,0,0,0,0,0,0,0,0,0,0,0,0,0,0,0,0,0,0,0,0,0,0,0,0,0,0,0.2554,0.2555,0,0.2597,0.2597,0.2597,0.2631,0.2632,0.2632,0.2633,0.2666,0.2666,0.2666,0,0,0,0,0,0,0,0,0,0,0,0,0,0.2516,0.2516,0.2554,0.2555,0.2556,0.2597,0.2597,0.2597,0.2631,0.2632,0.2633,0.2633,0.2666,0.2666,0.2666,0,0,0,0,0,0,0,0,0,0,0,0,0,0.254,0.2516,0.2554,0.2579,0.2582,0.2597,0.2597,0.2597,0.2631,0.2632,0.2633,0.2634,0.2665,0.2666,0.2666,0.2652,0,0,0.2668,0.2668,0,0,0,0,0,0,0,0,0.2539,0.2541,0.2575,0.2578,0.2581,0.2612,0.2596,0.2616,0.2631,0.261,0.2633,0.2634,0.2648,0.265,0.2652,0.2653,0.2655,0.2668,0.2668,0.2668,0.2668,0,0,0,0,0,0,0,0.2537,0.254,0.2568,0.2576,0.2579,0.2594,0.2598,0.26,0.2621,0.2611,0.2615,0.2624,0.2649,0.2652,0.2653,0.2655,0.2668,0.2668,0.2669,0.2669,0.2715,0.2716,0,0,0,0,0,0,0.2535,0.2538,0.2567,0.257,0.2565,0.2594,0.2598,0.2599,0.2621,0.2626,0.2623,0.2625,0.265,0.2653,0.2655,0.2708,0.2668,0.2669,0.2669,0.2714,0.2715,0.2716,0,0,0,0,0,0,0.2534,0.2537,0.2565,0.2558,0.2563,0.2594,0.2594,0.2599,0.2618,0.263,0.2635,0.2639,0.2651,0.2654,0.2673,0.2707,0.2669,0.2669,0.2713,0.2715,0.2716,0.277,0,0,0,0,0,0,0.2533,0.2536,0.2539,0.2557,0.2563,0.259,0.2594,0.26,0.2623,0.2626,0.2645,0.2648,0.2652,0.2673,0.2674,0.2707,0.267,0.2712,0.2714,0.2716,0.2767,0.2773,0.2778,0,0,0,0,0,0.2531,0.2536,0.2538,0.2542,0.2564,0.2591,0.2595,0.2618,0.2623,0.2637,0.2648,0.2649,0.2685,0.2673,0.2675,0.2709,0.2711,0.2713,0.2715,0.2764,0.2772,0.2778,0,0,0,0,0,0,0.2521,0.2541,0.2544,0.2554,0.2577,0.2598,0.2616,0.2624,0.2642,0.265,0.2653,0.2657,0.2691,0.2685,0.2672,0.2727,0.2701,0.2703,0.2738,0.2745,0.275,0.2764,0.267,0,0,0,0,0,0.2518,0.2529,0.2549,0.256,0.2573,0.2593,0.2607,0.2623,0.2641,0.2651,0.2662,0.2677,0.2697,0.2709,0.2722,0.2742,0.2755,0.2767,0.2772,0.2777,0.2789,0.2834,0.2845,0.2723,0.2723,0.2723,0,0,0.2516,0.2531,0.2535,0.2559,0.2578,0.2601,0.2604,0.2635,0.2658,0.265,0.2684,0.2696,0.2706,0.274,0.2755,0.2742,0.2818,0.278,0.2784,0.2793,0.2838,0.285,0.286,0.2725,0.2725,0.2724,0,0,0.2524,0.2533,0.2547,0.2568,0.2603,0.2618,0.2629,0.2657,0.2677,0.2703,0.2713,0.2743,0.276,0.2785,0.2796,0.2836,0.2846,0.2843,0.2885,0.2928,0.2939,0.2949,0.2981,0.2993,0.2846,0.2846,0.2846,0,0.2521,0.254,0.2557,0.258,0.2605,0.2626,0.2653,0.2673,0.2704,0.273,0.2723,0.2782,0.2785,0.2842,0.286,0.2852,0.2875,0.2859,0.2937,0.2947,0.2956,0.2986,0.2999,0.2849,0.2849,0.2848,0.2848,0,0.2539,0.2559,0.2575,0.2608,0.2636,0.2666,0.2698,0.2731,0.2754,0.2774,0.2835,0.2847,0.2888,0.2894,0.2889,0.2961,0.2957,0.294,0.2923,0.2972,0.3,0.3012,0.2853,0.2852,0.2851,0.285,0,0,0.2513,0.2574,0.2579,0.26,0.2657,0.2676,0.2733,0.2787,0.283,0.286,0.292,0.2955,0.2972,0.2986,0.2994,0.3027,0.3103,0.3016,0.3017,0.3052,0.3204,0.3169,0.3179,0.3108,0.311,0.3112,0.3199,0,0.2522,0.2562,0.2601,0.2645,0.2668,0.2724,0.277,0.2824,0.2875,0.2934,0.2971,0.3023,0.3004,0.3037,0.3071,0.3099,0.3138,0.3081,0.3147,0.3149,0.3116,0.3193,0.2961,0.3017,0.3211,0.3213,0.3214,0,0.2522,0.2551,0.2596,0.2664,0.2682,0.2717,0.2811,0.286,0.2955,0.3,0.3073,0.3101,0.3173,0.3139,0.3227,0.3196,0.321,0.322,0.3223,0.3182,0.3138,0.2999,0.3032,0.3234,0.3233,0.3231,0.323,0,0.2479,0.2545,0.2582,0.2603,0.2682,0.2728,0.2782,0.2881,0.2938,0.3056,0.3108,0.3193,0.3244,0.3284,0.3313,0.3283,0.3398,0.3354,0.3337,0.3334,0.3144,0.3121,0.3418,0.3418,0.3418,0.3418,0.3418,0,0.2465,0.2488,0.2563,0.2577,0.2633,0.2703,0.2783,0.2861,0.2973,0.3042,0.3137,0.3205,0.3285,0.3354,0.336,0.34,0.3443,0.3369,0.3366,0.3156,0.3134,0.3321,0.3308,0.3421,0.342,0.342,0.3419,0,0.2409,0.2458,0.2498,0.2582,0.2614,0.2654,0.2776,0.2827,0.295,0.3052,0.3094,0.324,0.334,0.3404,0.3485,0.3462,0.3496,0.3494,0.3243,0.3209,0.3387,0.3376,0.3488,0.3488,0.3487,0.3487,0.3487,0,0.2384,0.2399,0.2484,0.2507,0.2549,0.2622,0.267,0.2804,0.2871,0.3057,0.3097,0.3247,0.3327,0.3451,0.3464,0.3502,0.3523,0.3286,0.3183,0.3415,0.3401,0.339,0.338,0.2949,0.2944,0.294,0.2937,0,0.2331,0.2366,0.2397,0.2446,0.2494,0.2547,0.2636,0.2684,0.284,0.2933,0.306,0.3144,0.3298,0.3254,0.3328,0.3304,0.3264,0.3213,0.3534,0.2974,0.2915,0.2898,0.2904,0.2904,0.2908,0.291,0.2912,0.2913,0.2286,0.2292,0.2332,0.2369,0.2416,0.2446,0.2454,0.2556,0.264,0.2745,0.2913,0.2959,0.3047,0.3048,0.2984,0.2944,0.3153,0.3001,0.3008,0.302,0.2949,0.2894,0.2866,0.2868,0.2871,0.2873,0.2875,0,0.2206,0.2221,0.2249,0.2273,0.2265,0.2338,0.2397,0.2381,0.2423,0.2577,0.2666,0.2524,0.2541,0.2608,0.252,0.2552,0.2482,0.2432,0.2309,0.2348,0.2381,0.2271,0.2011,0.2007,0.2004,0.2001,0,0,0.2163,0.2143,0.2151,0.2105,0.2124,0.2082,0.2086,0.2095,0.2174,0.2187,0.2216,0.2432,0.2566,0.2244,0.2236,0.2103,0.2193,0.2028,0.2738,0.2636,0.2663,0.2749,0.263,0,0,0,0,0]},{"header":{"parameterUnit":"m.s-1","parameterCategory":2,"la1":30.2991,"la2":30.254,"lo1":-89.0895,"lo2":-89.0444,"dy":0.0017,"dx":0.0017,"nx":28,"ny":28,"refTime":"2024-04-04T03:00:00:Z","depth":"2","parameterNumber":3,"parameterNumberName":"V-component_of_CURRENTS"},"data":[0,0,0,0,0,0,0,0,0,0,0,0,0,0,0,0,0,0,0,0,0,0,0,0,0,0,0,0,0,0,0,0,0,0,0,0,0,0,0,0,0,0,0,0,0,0,0,0,0,0,0,0,0,0,0,0,0,0,0.0062,0.0061,0,-0.0021,-0.0022,-0.0023,-0.0072,-0.0072,-0.0072,-0.0073,-0.0191,-0.0194,-0.0197,0,0,0,0,0,0,0,0,0,0,0,0,0,0.0123,0.0123,0.0062,0.0061,0.006,-0.002,-0.0022,-0.0023,-0.0072,-0.0072,-0.0073,-0.0073,-0.019,-0.0193,-0.0197,0,0,0,0,0,0,0,0,0,0,0,0,0,0.0074,0.0122,0.0062,0.0026,0.0022,-0.002,-0.0022,-0.0023,-0.0072,-0.0072,-0.0073,-0.0073,-0.0189,-0.0193,-0.0197,-0.0219,0,0,-0.0211,-0.0213,0,0,0,0,0,0,0,0,0.0077,0.0072,0.0032,0.0029,0.0024,-0.0036,-0.0044,-0.009,-0.0072,-0.0037,-0.0073,-0.0073,-0.0142,-0.015,-0.0165,-0.0225,-0.023,-0.0212,-0.0214,-0.0216,-0.0217,0,0,0,0,0,0,0,0.008,0.0075,0.0029,0.0031,0.0026,-0.0004,-0.0011,-0.0053,-0.0088,-0.004,-0.0044,-0.0052,-0.0145,-0.0161,-0.0169,-0.0232,-0.0211,-0.0215,-0.0218,-0.022,-0.0308,-0.0308,0,0,0,0,0,0,0.0095,0.0078,0.0031,0.0026,0.0051,-0.0005,-0.0013,-0.0017,-0.0087,-0.0097,-0.0052,-0.0054,-0.0153,-0.0163,-0.0173,-0.0187,-0.0216,-0.022,-0.0223,-0.0309,-0.0308,-0.0308,0,0,0,0,0,0,0.0096,0.0091,0.0035,0.005,0.0041,-0.0005,-0.001,-0.0018,-0.0033,-0.0095,-0.0106,-0.0057,-0.0154,-0.0167,-0.0202,-0.0192,-0.0222,-0.0226,-0.0309,-0.0309,-0.0308,-0.0225,0,0,0,0,0,0,0.0098,0.0093,0.0094,0.0052,0.0041,0.0019,-0.001,-0.002,-0.0038,-0.0041,-0.0104,-0.0115,-0.0155,-0.0195,-0.0206,-0.0199,-0.023,-0.031,-0.0309,-0.0308,-0.0228,-0.0221,-0.0216,0,0,0,0,0,0.0101,0.0108,0.0094,0.0089,0.0044,0.002,0.0012,-0.0023,-0.0037,-0.0038,-0.0079,-0.0113,-0.0199,-0.0198,-0.0212,-0.0205,-0.031,-0.0309,-0.0308,-0.0231,-0.0223,-0.0216,0,0,0,0,0,0,0.0128,0.0102,0.0087,0.0083,0.0057,0.0012,0.0007,-0.0017,-0.0051,-0.0053,-0.0112,-0.0126,-0.0152,-0.0191,-0.0188,-0.0229,-0.0259,-0.0261,-0.0195,-0.0189,-0.0183,-0.0163,-0.0234,0,0,0,0,0,0.0137,0.0139,0.0104,0.0101,0.0092,0.0051,0.0036,0.0015,-0.0021,-0.0035,-0.0079,-0.0124,-0.016,-0.0183,-0.0222,-0.0247,-0.0281,-0.0251,-0.0245,-0.024,-0.0233,-0.0273,-0.0269,-0.0306,-0.0306,-0.0306,0,0,0.0145,0.0132,0.0131,0.0107,0.0085,0.0083,0.0042,0.0028,0.0026,-0.0044,-0.0059,-0.0105,-0.0162,-0.0186,-0.0201,-0.0217,-0.0247,-0.0239,-0.0234,-0.023,-0.0272,-0.0268,-0.0265,-0.0305,-0.0305,-0.0305,0,0,0.017,0.0154,0.0167,0.0155,0.0132,0.0108,0.0109,0.007,0.0054,0.0029,-0.0016,-0.0054,-0.0114,-0.0149,-0.0176,-0.0162,-0.0213,-0.0175,-0.0131,-0.017,-0.0167,-0.0165,-0.0198,-0.02,-0.0174,-0.0173,-0.0173,0,0.018,0.0193,0.0165,0.0177,0.0174,0.0126,0.014,0.0117,0.0072,0.0064,0.0036,-0.0044,-0.0096,-0.0121,-0.0119,-0.0148,-0.0176,-0.0151,-0.0161,-0.016,-0.0159,-0.0194,-0.0197,-0.0169,-0.017,-0.017,-0.0171,0,0.0218,0.0227,0.0235,0.0238,0.023,0.0234,0.0204,0.0195,0.0165,0.0136,0.0104,0.0032,-0.0014,-0.0038,-0.0079,-0.0095,-0.0117,-0.0145,-0.0174,-0.015,-0.0189,-0.0193,-0.0163,-0.0165,-0.0166,-0.0167,0,0,0.0246,0.026,0.0264,0.0283,0.0267,0.0268,0.027,0.0258,0.0269,0.0209,0.0208,0.0132,0.0092,0.0059,0.0003,-0.0038,-0.0063,-0.0084,-0.0088,-0.0108,-0.0143,-0.0155,-0.0162,-0.0091,-0.0091,-0.0091,-0.0169,0,0.0284,0.033,0.032,0.0359,0.0382,0.0352,0.0361,0.0344,0.0317,0.0304,0.0227,0.02,0.013,0.0111,0.006,-0.0031,-0.0072,-0.0039,-0.0171,-0.0175,-0.0182,-0.0167,-0.0142,-0.0209,-0.0174,-0.0175,-0.0176,0,0.0327,0.0356,0.0405,0.0437,0.0443,0.0457,0.0474,0.0477,0.0445,0.0421,0.0377,0.0314,0.0247,0.0182,0.0045,0.0071,-0.0025,-0.0102,-0.0107,-0.0151,-0.0196,-0.0231,-0.0219,-0.0184,-0.0183,-0.0182,-0.0182,0,0.0375,0.0416,0.0461,0.0472,0.0494,0.0515,0.0527,0.0517,0.054,0.0502,0.0505,0.0407,0.0365,0.0235,0.0075,0.0061,-0.0078,-0.012,-0.0222,-0.0224,-0.0246,-0.0249,-0.0214,-0.0214,-0.0214,-0.0214,-0.0213,0,0.0426,0.0463,0.0494,0.0522,0.0586,0.0579,0.0639,0.0633,0.0642,0.0678,0.0575,0.0578,0.0377,0.0272,0.0113,-0.0059,-0.0049,-0.0208,-0.0243,-0.0216,-0.0215,-0.0229,-0.023,-0.0217,-0.0216,-0.0215,-0.0215,0,0.0474,0.0487,0.0548,0.0592,0.0611,0.0662,0.0728,0.0773,0.0765,0.0809,0.0803,0.0708,0.0569,0.0367,0.0152,0.0004,-0.0169,-0.0233,-0.0185,-0.0212,-0.0302,-0.0298,-0.0358,-0.0359,-0.036,-0.0361,-0.0361,0,0.0503,0.0539,0.0608,0.0653,0.0679,0.0752,0.0806,0.0832,0.0891,0.0897,0.0928,0.0812,0.0748,0.0432,0.0145,-0.0128,-0.0167,-0.0285,-0.0315,-0.0288,-0.0316,-0.031,-0.0305,-0.0314,-0.0314,-0.0314,-0.0314,0,0.0563,0.0582,0.0635,0.0732,0.08,0.0886,0.0972,0.1038,0.1071,0.1105,0.1132,0.1084,0.0783,0.0512,0.0135,-0.0055,-0.0242,-0.0297,-0.0281,-0.0275,-0.0251,-0.0277,-0.0272,-0.0316,-0.0316,-0.0316,-0.0316,-0.0315,0.0607,0.0656,0.0724,0.0817,0.0902,0.1015,0.11,0.1188,0.1287,0.1348,0.1294,0.1234,0.0915,0.0443,0.0103,-0.0257,-0.0245,-0.0368,-0.0366,-0.0364,-0.0338,-0.0317,-0.0389,-0.0389,-0.0389,-0.039,-0.039,0,0.0663,0.0717,0.0805,0.0917,0.1021,0.1057,0.1204,0.1289,0.1412,0.1459,0.1475,0.1193,0.0878,0.0511,-0.0017,-0.0333,-0.0366,-0.0435,-0.0401,-0.0397,-0.0394,-0.0369,-0.0429,-0.043,-0.0431,-0.0432,0,0,0.0692,0.0781,0.0826,0.0999,0.1082,0.1232,0.1323,0.1439,0.1516,0.1568,0.1541,0.1459,0.1013,0.0633,0.019,-0.0116,-0.0186,-0.0184,-0.0118,-0.0022,-0.0015,-0.0322,-0.0276,0,0,0,0,0]}],[{"header":{"parameterUnit":"m.s-1","parameterCategory":2,"la1":30.2991,"la2":30.254,"lo1":-89.0895,"lo2":-89.0444,"dy":0.0017,"dx":0.0017,"nx":28,"ny":28,"refTime":"2024-04-04T03:00:00:Z","depth":"4","parameterNumber":2,"parameterNumberName":"U-component_of_CURRENTS"},"data":[0,0,0,0,0,0,0,0,0,0,0,0,0,0,0,0,0,0,0,0,0,0,0,0,0,0,0,0,0,0,0,0,0,0,0,0,0,0,0,0,0,0,0,0,0,0,0,0,0,0,0,0,0,0,0,0,0,0,0.1615,0.1615,0,0.1689,0.169,0.1691,0.1756,0.1757,0.1758,0.1759,0.1853,0.1855,0.1856,0,0,0,0,0,0,0,0,0,0,0,0,0,0.1529,0.153,0.1614,0.1616,0.1617,0.1689,0.169,0.1691,0.1756,0.1757,0.1758,0.1759,0.1853,0.1855,0.1856,0,0,0,0,0,0,0,0,0,0,0,0,0,0.1579,0.153,0.1614,0.166,0.1665,0.1689,0.169,0.1691,0.1756,0.1757,0.1759,0.176,0.1852,0.1854,0.1857,0.1843,0,0,0.1864,0.1865,0,0,0,0,0,0,0,0,0.1576,0.1581,0.1652,0.1657,0.1662,0.1717,0.1694,0.1744,0.1755,0.1719,0.1759,0.1761,0.181,0.1816,0.1823,0.1848,0.1852,0.1864,0.1866,0.1867,0.1868,0,0,0,0,0,0,0,0.1572,0.1579,0.1642,0.1653,0.1659,0.1677,0.1685,0.1704,0.1754,0.1722,0.1728,0.1739,0.1813,0.1821,0.1826,0.1853,0.1864,0.1866,0.1868,0.1869,0.1985,0.1986,0,0,0,0,0,0,0.1566,0.1575,0.164,0.1644,0.1624,0.1677,0.1686,0.1696,0.1754,0.1764,0.1738,0.1742,0.1816,0.1823,0.183,0.1923,0.1867,0.1869,0.1871,0.1983,0.1985,0.1987,0,0,0,0,0,0,0.1564,0.1571,0.1637,0.1613,0.1623,0.1677,0.1687,0.1697,0.1745,0.1766,0.1776,0.1781,0.1817,0.1826,0.1882,0.1923,0.187,0.1872,0.1981,0.1984,0.1986,0.2041,0,0,0,0,0,0,0.1561,0.1569,0.1591,0.1613,0.1625,0.1677,0.1687,0.1697,0.1748,0.1755,0.1805,0.1813,0.1819,0.1879,0.1885,0.1925,0.1874,0.1979,0.1982,0.1985,0.2037,0.2045,0.2052,0,0,0,0,0,0.1557,0.1575,0.1591,0.16,0.1647,0.1678,0.1687,0.1727,0.1749,0.1775,0.1812,0.1814,0.1902,0.1882,0.1888,0.1931,0.1978,0.1982,0.1985,0.2034,0.2043,0.2051,0,0,0,0,0,0,0.155,0.1584,0.1602,0.1631,0.1666,0.1691,0.1725,0.1747,0.1795,0.1815,0.1831,0.1842,0.1906,0.1909,0.1886,0.1973,0.1942,0.1947,0.1976,0.1985,0.1993,0.1997,0.1876,0,0,0,0,0,0.1556,0.1583,0.1614,0.1643,0.1663,0.17,0.1726,0.1754,0.179,0.1815,0.1848,0.1885,0.1918,0.1946,0.1972,0.2017,0.2024,0.205,0.2057,0.2064,0.2072,0.2116,0.2128,0.1999,0.1999,0.1999,0,0,0.1561,0.1586,0.1602,0.1644,0.1677,0.1709,0.172,0.1771,0.1807,0.1816,0.1887,0.1914,0.1936,0.199,0.202,0.2004,0.2105,0.2068,0.2073,0.2079,0.2121,0.2134,0.2145,0.2001,0.2001,0.2001,0,0,0.1575,0.1609,0.1635,0.1666,0.1722,0.1742,0.1765,0.1813,0.1851,0.1909,0.1929,0.1981,0.2031,0.2057,0.2073,0.2135,0.214,0.2152,0.2196,0.224,0.225,0.226,0.2285,0.2296,0.2157,0.2157,0.2157,0,0.1585,0.1618,0.1649,0.1682,0.1717,0.176,0.1798,0.1834,0.1897,0.1935,0.1944,0.2041,0.206,0.2124,0.215,0.2152,0.2174,0.216,0.2249,0.2259,0.2268,0.229,0.2302,0.216,0.216,0.216,0.2159,0,0.1606,0.1648,0.167,0.1724,0.1764,0.1807,0.1855,0.1911,0.1961,0.1994,0.2084,0.2115,0.2176,0.219,0.2191,0.2271,0.2265,0.2251,0.2225,0.2284,0.2304,0.2316,0.2165,0.2164,0.2163,0.2162,0,0,0.1586,0.1669,0.1681,0.1716,0.1795,0.1822,0.1898,0.1968,0.2026,0.2091,0.2166,0.2226,0.226,0.228,0.2298,0.2334,0.2412,0.2329,0.233,0.235,0.2509,0.2358,0.2356,0.2423,0.2425,0.2427,0.2497,0,0.1601,0.1659,0.1706,0.1774,0.1807,0.1881,0.194,0.2014,0.2084,0.2164,0.2219,0.2294,0.2289,0.2337,0.2375,0.2408,0.2446,0.2394,0.2452,0.2453,0.2309,0.2365,0.2434,0.2505,0.2508,0.251,0.2511,0,0.1602,0.1644,0.171,0.18,0.1826,0.1879,0.1996,0.2058,0.2173,0.2234,0.2325,0.2369,0.2455,0.2433,0.2525,0.25,0.2516,0.2526,0.2528,0.2376,0.2323,0.2435,0.2531,0.253,0.2528,0.2527,0.2526,0,0.1554,0.1646,0.1702,0.1732,0.1838,0.1901,0.197,0.2087,0.2154,0.2295,0.2362,0.2459,0.2528,0.257,0.2604,0.2583,0.2684,0.2651,0.2527,0.2517,0.2607,0.2596,0.2711,0.2711,0.2711,0.2711,0.2711,0,0.1531,0.1578,0.169,0.1717,0.1798,0.1885,0.1989,0.2079,0.2207,0.2285,0.2401,0.2468,0.257,0.2634,0.2643,0.2621,0.2722,0.2544,0.2528,0.2628,0.2618,0.2615,0.2603,0.2713,0.2713,0.2712,0.2712,0,0.1467,0.154,0.1609,0.1731,0.1779,0.184,0.1993,0.2054,0.2197,0.2309,0.2362,0.2507,0.259,0.2659,0.2732,0.2657,0.2656,0.2622,0.2734,0.2722,0.2449,0.2439,0.2482,0.2478,0.2474,0.247,0.2468,0,0.1436,0.1465,0.1604,0.1649,0.1716,0.1822,0.1889,0.204,0.2109,0.2305,0.2342,0.2482,0.256,0.2539,0.2622,0.2633,0.2601,0.258,0.2498,0.2447,0.2428,0.2425,0.242,0.2461,0.246,0.2459,0.2458,0,0.1373,0.144,0.1495,0.1587,0.1669,0.1745,0.1859,0.1892,0.2062,0.2208,0.227,0.2312,0.24,0.2442,0.2478,0.2475,0.2579,0.2538,0.2545,0.2467,0.2422,0.2406,0.2407,0.2445,0.2447,0.2448,0.2449,0,0.1332,0.1353,0.1434,0.1505,0.1595,0.1635,0.1711,0.1787,0.1869,0.2081,0.2095,0.224,0.2376,0.2362,0.2391,0.2385,0.234,0.2249,0.227,0.2286,0.2188,0.21,0.2018,0,0,0,0,0,0.1276,0.1285,0.1341,0.1404,0.1485,0.1542,0.1671,0.1747,0.1911,0.1904,0.1994,0.2064,0.2109,0.2181,0.2135,0.2304,0.2349,0.2239,0.2255,0.2369,0.2384,0.2287,0,0,0,0,0,0,0.1236,0.1282,0.13,0.1301,0.1325,0.1401,0.1476,0.159,0.1599,0.1771,0.1808,0.1937,0.2014,0.2114,0.2094,0.2117,0.2084,0.2333,0.2328,0.236,0.2374,0.2387,0.2292,0,0,0,0,0]},{"header":{"parameterUnit":"m.s-1","parameterCategory":2,"la1":30.2991,"la2":30.254,"lo1":-89.0895,"lo2":-89.0444,"dy":0.0017,"dx":0.0017,"nx":28,"ny":28,"refTime":"2024-04-04T03:00:00:Z","depth":"4","parameterNumber":3,"parameterNumberName":"V-component_of_CURRENTS"},"data":[0,0,0,0,0,0,0,0,0,0,0,0,0,0,0,0,0,0,0,0,0,0,0,0,0,0,0,0,0,0,0,0,0,0,0,0,0,0,0,0,0,0,0,0,0,0,0,0,0,0,0,0,0,0,0,0,0,0,0.0131,0.013,0,0.0077,0.0076,0.0076,0.0051,0.0051,0.0051,0.0051,-0.0035,-0.0037,-0.0039,0,0,0,0,0,0,0,0,0,0,0,0,0,0.0171,0.0171,0.0131,0.013,0.013,0.0077,0.0076,0.0075,0.0051,0.0051,0.0051,0.0051,-0.0034,-0.0037,-0.004,0,0,0,0,0,0,0,0,0,0,0,0,0,0.0139,0.017,0.0131,0.0111,0.0109,0.0077,0.0076,0.0075,0.0051,0.0051,0.0051,0.0051,-0.0033,-0.0037,-0.004,-0.0064,0,0,-0.0051,-0.0052,0,0,0,0,0,0,0,0,0.0141,0.0137,0.0115,0.0112,0.011,0.0071,0.0059,0.0027,0.0051,0.0073,0.0051,0.0051,-0.0002,-0.0008,-0.0019,-0.0068,-0.0072,-0.0051,-0.0053,-0.0055,-0.0056,0,0,0,0,0,0,0,0.0143,0.0139,0.0109,0.0114,0.0111,0.0091,0.0087,0.0053,0.0035,0.0071,0.0069,0.0063,-0.0004,-0.0015,-0.0021,-0.0073,-0.0051,-0.0054,-0.0056,-0.0058,-0.0138,-0.0138,0,0,0,0,0,0,0.0152,0.0142,0.0111,0.0108,0.0126,0.009,0.0085,0.0083,0.0036,0.0029,0.0063,0.0062,-0.0009,-0.0017,-0.0024,-0.0037,-0.0055,-0.0058,-0.006,-0.0138,-0.0138,-0.0138,0,0,0,0,0,0,0.0153,0.015,0.0113,0.0123,0.0117,0.009,0.0087,0.0082,0.0074,0.003,0.0023,0.0061,-0.0009,-0.0019,-0.0047,-0.0042,-0.006,-0.0063,-0.0138,-0.0138,-0.0138,-0.0076,0,0,0,0,0,0,0.0155,0.0151,0.0153,0.0124,0.0117,0.0102,0.0087,0.0081,0.007,0.0069,0.0025,0.0017,-0.001,-0.0042,-0.0051,-0.0047,-0.0066,-0.0138,-0.0138,-0.0138,-0.0078,-0.0074,-0.007,0,0,0,0,0,0.0156,0.016,0.0154,0.015,0.0121,0.0102,0.0096,0.0076,0.007,0.0069,0.0041,0.0019,-0.0049,-0.0045,-0.0055,-0.0052,-0.0138,-0.0138,-0.0138,-0.008,-0.0075,-0.007,0,0,0,0,0,0,0.0173,0.0157,0.015,0.0147,0.0129,0.0098,0.0095,0.008,0.0057,0.0057,0.0017,0.0007,-0.0015,-0.0045,-0.004,-0.0076,-0.0097,-0.0099,-0.0049,-0.0044,-0.0041,-0.0025,-0.0069,0,0,0,0,0,0.018,0.0183,0.0159,0.0157,0.0151,0.0124,0.0114,0.0101,0.0076,0.0067,0.0037,0.0004,-0.0025,-0.0042,-0.0073,-0.0095,-0.0125,-0.0101,-0.0097,-0.0093,-0.0089,-0.0128,-0.0127,-0.0138,-0.0138,-0.0138,0,0,0.0185,0.0177,0.0178,0.0162,0.0147,0.0145,0.0119,0.0109,0.0109,0.006,0.005,0.0016,-0.0028,-0.0048,-0.0061,-0.0072,-0.0106,-0.0093,-0.009,-0.0087,-0.0128,-0.0127,-0.0126,-0.0138,-0.0138,-0.0138,0,0,0.0201,0.0192,0.0202,0.0194,0.0179,0.0162,0.0163,0.0136,0.0127,0.0107,0.0077,0.0046,0.0,-0.0027,-0.0048,-0.0044,-0.0083,-0.0054,-0.0024,-0.0062,-0.0061,-0.0061,-0.0095,-0.0098,-0.0053,-0.0053,-0.0053,0,0.0208,0.0219,0.02,0.0208,0.0208,0.0175,0.0185,0.0169,0.0137,0.0131,0.0113,0.005,0.0011,-0.0013,-0.0011,-0.0035,-0.0061,-0.0034,-0.0055,-0.0056,-0.0056,-0.0092,-0.0096,-0.005,-0.005,-0.0051,-0.0051,0,0.0233,0.0242,0.0247,0.0251,0.0246,0.0249,0.0228,0.0222,0.0203,0.0182,0.0155,0.01,0.0065,0.0045,0.0016,-0.0005,-0.0023,-0.0043,-0.0062,-0.0051,-0.009,-0.0095,-0.0046,-0.0047,-0.0048,-0.0048,0,0,0.0247,0.0263,0.0266,0.0283,0.0273,0.0274,0.0275,0.0266,0.0275,0.023,0.0227,0.0168,0.0138,0.0112,0.0069,0.0031,-0.0001,-0.0003,-0.0007,-0.0028,-0.0081,-0.0083,-0.009,-0.0022,-0.0022,-0.0023,-0.0104,0,0.0273,0.0308,0.0304,0.0335,0.0353,0.0334,0.0341,0.0328,0.0309,0.0297,0.0236,0.0215,0.0164,0.015,0.0103,0.0027,-0.0013,0.0023,-0.0096,-0.01,-0.0096,-0.0095,-0.0025,-0.0109,-0.011,-0.0111,-0.0112,0,0.03,0.0324,0.0362,0.0393,0.0398,0.0412,0.0427,0.0429,0.0402,0.0383,0.0346,0.0298,0.0238,0.0192,0.0069,0.0096,0.0016,-0.0049,-0.0054,-0.0081,-0.0112,-0.0125,-0.0122,-0.0121,-0.0121,-0.012,-0.0119,0,0.0329,0.0365,0.0403,0.0413,0.0435,0.0456,0.0469,0.046,0.0477,0.0445,0.0443,0.036,0.0323,0.0213,0.0078,0.0074,-0.0062,-0.0086,-0.0165,-0.0166,-0.0167,-0.0167,-0.0173,-0.0173,-0.0173,-0.0173,-0.0172,0,0.036,0.0392,0.0428,0.0451,0.0505,0.0505,0.0555,0.0552,0.0556,0.0578,0.0498,0.0486,0.0327,0.023,0.0101,-0.0045,-0.0046,-0.0159,-0.0187,-0.0139,-0.0135,-0.0171,-0.017,-0.0176,-0.0175,-0.0174,-0.0174,0,0.0386,0.0404,0.0457,0.0501,0.0523,0.0566,0.0626,0.0659,0.0653,0.0678,0.0672,0.058,0.045,0.0286,0.01,-0.0006,-0.0152,-0.0205,-0.0135,-0.0159,-0.0239,-0.0233,-0.03,-0.03,-0.0301,-0.0301,-0.0302,0,0.0402,0.0432,0.0502,0.0542,0.057,0.0636,0.068,0.0706,0.0744,0.0735,0.0748,0.0639,0.0553,0.0299,0.0114,-0.013,-0.0169,-0.0244,-0.0251,-0.023,-0.0252,-0.0245,-0.0239,-0.0303,-0.0303,-0.0303,-0.0303,0,0.0435,0.0461,0.0506,0.0591,0.0653,0.0725,0.0795,0.0829,0.0853,0.0849,0.0813,0.0676,0.0525,0.0311,0.012,-0.0057,-0.0195,-0.0251,-0.0251,-0.0259,-0.0235,-0.0254,-0.0248,-0.0306,-0.0305,-0.0305,-0.0305,0,0.0462,0.0499,0.0559,0.0635,0.0718,0.0794,0.0826,0.0869,0.0903,0.0892,0.0878,0.0709,0.0612,0.0348,0.0174,-0.0002,-0.0054,-0.0114,-0.0122,-0.0122,-0.0053,0.0004,-0.0014,0,0,0,0,0,0.0484,0.0525,0.0597,0.0679,0.0764,0.0816,0.0893,0.0915,0.0939,0.0926,0.0907,0.0767,0.0504,0.039,0.0214,0.0144,-0.0096,-0.007,-0.0171,-0.0318,-0.0315,-0.0265,0,0,0,0,0,0,0.0496,0.0563,0.0598,0.0707,0.077,0.0867,0.0919,0.0933,0.0927,0.092,0.0787,0.0721,0.0467,0.0608,0.0211,0.0156,0.0067,-0.0192,-0.0196,-0.0319,-0.0317,-0.0315,-0.0262,0,0,0,0,0]}]]